timestamp,surface_pressure_avg,surface_temp_avg,battery_voltage,lat,long
2019-01-25 00:00:00+00:00,263.5964,1.2,12.81,47.84626,-54.09684
2019-01-25 00:10:00+00:00,276.9348,1.2,12.81,47.84626,-54.09684
2019-01-25 00:20:00+00:00,282.0731,1.18,12.89,47.84626,-54.09684
2019-01-25 00:30:00+00:00,287.3796,1.17,12.89,47.84626,-54.09684
2019-01-25 00:40:00+00:00,299.7996,1.17,12.89,47.84626,-54.09684
2019-01-25 00:50:00+00:00,311.163,1.18,12.89,47.84626,-54.09684
2019-01-25 01:00:00+00:00,313.2496,1.17,12.81,47.84626,-54.09684
2019-01-25 01:10:00+00:00,315.368,1.15,12.73,47.84626,-54.09684
2019-01-25 01:20:00+00:00,323.918,1.17,12.89,47.84626,-54.09684
2019-01-25 01:30:00+00:00,330.4096,1.18,12.89,47.84626,-54.09684
2019-01-25 01:40:00+00:00,333.5697,1.18,12.89,47.84626,-54.09684
2019-01-25 01:50:00+00:00,332.408,1.19,12.89,47.84626,-54.09684
2019-01-25 02:00:00+00:00,342.838,1.19,12.81,47.84626,-54.09684
2019-01-25 02:10:00+00:00,351.2762,1.19,12.73,47.84626,-54.09684
2019-01-25 02:20:00+00:00,348.2845,1.1,12.81,47.84626,-54.09684
2019-01-25 02:30:00+00:00,343.6179,1.08,12.81,47.84626,-54.09684
2019-01-25 02:40:00+00:00,354.1063,1.09,12.89,47.84626,-54.09684
2019-01-25 02:50:00+00:00,359.1163,1.1,12.89,47.84626,-54.09684
2019-01-25 03:00:00+00:00,349.3847,1.0,12.81,47.84626,-54.09684
2019-01-25 03:10:00+00:00,351.3213,1.06,12.73,47.84626,-54.09684
2019-01-25 03:20:00+00:00,350.3547,1.07,12.81,47.84626,-54.09684
2019-01-25 03:30:00+00:00,338.1346,1.0,12.81,47.84626,-54.09684
2019-01-25 03:40:00+00:00,332.3763,1.0,12.89,47.84626,-54.09684
2019-01-25 03:50:00+00:00,341.1247,1.09,12.89,47.84626,-54.09684
2019-01-25 04:00:00+00:00,337.953,1.1,12.81,47.84626,-54.09684
2019-01-25 04:10:00+00:00,320.4847,1.04,12.73,47.84626,-54.09684
2019-01-25 04:20:00+00:00,315.3813,1.06,12.81,47.84626,-54.09684
2019-01-25 04:30:00+00:00,315.9664,1.1,12.81,47.84626,-54.09684
2019-01-25 04:40:00+00:00,307.533,1.1,12.89,47.84626,-54.09684
2019-01-25 04:50:00+00:00,297.3047,1.09,12.89,47.84626,-54.09684
2019-01-25 05:00:00+00:00,297.603,1.09,12.81,47.84626,-54.09684
2019-01-25 05:10:00+00:00,290.9514,1.09,12.73,47.84626,-54.09684
2019-01-25 05:20:00+00:00,278.8563,1.08,12.81,47.84626,-54.09684
2019-01-25 05:30:00+00:00,273.7698,1.08,12.81,47.84626,-54.09684
2019-01-25 05:40:00+00:00,263.7581,1.07,12.89,47.84626,-54.09684
2019-01-25 05:50:00+00:00,252.0898,1.0,12.89,47.84626,-54.09684
2019-01-25 06:00:00+00:00,245.2914,1.0,12.81,47.84626,-54.09684
2019-01-25 06:10:00+00:00,236.048,1.0,12.73,47.84626,-54.09684
2019-01-25 06:20:00+00:00,228.6314,1.0,12.81,47.84626,-54.09684
2019-01-25 06:30:00+00:00,216.8481,1.0,12.81,47.84626,-54.09684
2019-01-25 06:40:00+00:00,204.1331,1.0,12.81,47.84626,-54.09684
2019-01-25 06:50:00+00:00,201.4714,1.0,12.89,47.84626,-54.09684
2019-01-25 07:00:00+00:00,202.0781,1.0,12.81,47.84626,-54.09684
2019-01-25 07:10:00+00:00,190.2681,1.0,12.73,47.84626,-54.09684
2019-01-25 07:20:00+00:00,183.8731,0.94,12.81,47.84626,-54.09684
2019-01-25 07:30:00+00:00,186.8865,0.9,12.81,47.84626,-54.09684
2019-01-25 07:40:00+00:00,180.1365,0.9,12.81,47.84626,-54.09684
2019-01-25 07:50:00+00:00,169.9565,0.9,12.89,47.84626,-54.09684
2019-01-25 08:00:00+00:00,172.6615,0.9,12.81,47.84626,-54.09684
2019-01-25 08:10:00+00:00,171.3582,0.9,12.73,47.84626,-54.09684
2019-01-25 08:20:00+00:00,163.5548,0.89,12.81,47.84626,-54.09684
2019-01-25 08:30:00+00:00,165.5298,0.89,12.81,47.84626,-54.09684
2019-01-25 08:40:00+00:00,168.2182,0.9,12.81,47.84626,-54.09684
2019-01-25 08:50:00+00:00,177.8982,0.9,12.81,47.84626,-54.09684
2019-01-25 09:00:00+00:00,188.7448,0.93,12.81,47.84626,-54.09684
2019-01-25 09:10:00+00:00,188.6481,0.9,12.73,47.84626,-54.09684
2019-01-25 09:20:00+00:00,189.8798,0.9,12.81,47.84626,-54.09684
2019-01-25 09:30:00+00:00,197.8381,0.9,12.81,47.84626,-54.09684
2019-01-25 09:40:00+00:00,205.3481,0.9,12.81,47.84626,-54.09684
2019-01-25 09:50:00+00:00,208.5698,0.8,12.81,47.84626,-54.09684
2019-01-25 10:00:00+00:00,214.7698,0.8,12.81,47.84626,-54.09684
2019-01-25 10:10:00+00:00,217.6347,0.8,12.73,47.84626,-54.09684
2019-01-25 10:20:00+00:00,216.1847,0.8,12.81,47.84626,-54.09684
2019-01-25 10:30:00+00:00,220.7881,0.8,12.81,47.84626,-54.09684
2019-01-25 10:40:00+00:00,232.4965,0.84,12.81,47.84626,-54.09684
2019-01-25 10:50:00+00:00,245.3414,0.88,12.81,47.84626,-54.09684
2019-01-25 11:00:00+00:00,246.9397,0.89,12.81,47.84626,-54.09684
2019-01-25 11:10:00+00:00,251.8614,0.8,12.73,47.84626,-54.09684
2019-01-25 11:20:00+00:00,259.1714,0.79,12.81,47.84626,-54.09684
2019-01-25 11:30:00+00:00,265.8864,0.88,12.81,47.84626,-54.09684
2019-01-25 11:40:00+00:00,266.4797,0.9,12.81,47.84626,-54.09684
2019-01-25 11:50:00+00:00,276.6731,0.9,12.81,47.84626,-54.09684
2019-01-25 12:00:00+00:00,285.6313,0.9,12.81,47.84626,-54.09684
2019-01-25 12:10:00+00:00,292.5147,0.9,12.73,47.84626,-54.09684
2019-01-25 12:20:00+00:00,296.638,0.86,12.81,47.84626,-54.09684
2019-01-25 12:30:00+00:00,303.0046,0.82,12.81,47.84626,-54.09684
2019-01-25 12:40:00+00:00,305.3063,0.86,12.81,47.84626,-54.09684
2019-01-25 12:50:00+00:00,314.6381,0.88,12.81,47.84626,-54.09684
2019-01-25 13:00:00+00:00,327.0413,0.9,12.81,47.84626,-54.09684
2019-01-25 13:10:00+00:00,338.2363,0.9,12.73,47.84626,-54.09684
2019-01-25 13:20:00+00:00,342.6696,0.9,12.81,47.84626,-54.09684
2019-01-25 13:30:00+00:00,350.3262,0.9,12.81,47.84626,-54.09684
2019-01-25 13:40:00+00:00,352.6646,0.9,12.89,47.84626,-54.09684
2019-01-25 13:50:00+00:00,352.0597,0.9,12.97,47.84626,-54.09684
2019-01-25 14:00:00+00:00,356.2897,0.9,12.89,47.84626,-54.09684
2019-01-25 14:10:00+00:00,358.7679,0.9,12.81,47.84626,-54.09684
2019-01-25 14:20:00+00:00,357.3663,0.9,12.89,47.84626,-54.09684
2019-01-25 14:30:00+00:00,355.8979,0.9,12.89,47.84626,-54.09684
2019-01-25 14:40:00+00:00,360.1813,0.9,12.97,47.84626,-54.09684
2019-01-25 14:50:00+00:00,365.7529,0.95,12.97,47.84626,-54.09684
2019-01-25 15:00:00+00:00,367.0862,0.9,12.89,47.84626,-54.09684
2019-01-25 15:10:00+00:00,369.5363,0.9,12.81,47.84626,-54.09684
2019-01-25 15:20:00+00:00,371.0629,0.9,12.97,47.84626,-54.09684
2019-01-25 15:30:00+00:00,368.6579,0.9,12.97,47.84626,-54.09684
2019-01-25 15:40:00+00:00,365.3712,0.9,12.97,47.84626,-54.09684
2019-01-25 15:50:00+00:00,363.6863,0.9,13.05,47.84626,-54.09684
2019-01-25 16:00:00+00:00,360.058,0.9,12.97,47.84626,-54.09684
2019-01-25 16:10:00+00:00,349.1063,0.9,12.89,47.84626,-54.09684
2019-01-25 16:20:00+00:00,342.4046,0.95,12.97,47.84626,-54.09684
2019-01-25 16:30:00+00:00,343.0179,0.99,12.97,47.84626,-54.09684
2019-01-25 16:40:00+00:00,338.293,1.0,13.05,47.84626,-54.09684
2019-01-25 16:50:00+00:00,329.8046,1.0,13.05,47.84626,-54.09684
2019-01-25 17:00:00+00:00,325.2296,1.0,12.97,47.84626,-54.09684
2019-01-25 17:10:00+00:00,321.4897,1.0,12.89,47.84626,-54.09684
2019-01-25 17:20:00+00:00,308.178,1.0,12.97,47.84626,-54.09684
2019-01-25 17:30:00+00:00,298.2064,1.0,12.97,47.84626,-54.09684
2019-01-25 17:40:00+00:00,296.003,1.0,12.97,47.84626,-54.09684
2019-01-25 17:50:00+00:00,287.7263,1.0,12.97,47.84626,-54.09684
2019-01-25 18:00:00+00:00,272.7498,1.0,12.89,47.84626,-54.09684
2019-01-25 18:10:00+00:00,263.7314,1.0,12.81,47.84626,-54.09684
2019-01-25 18:20:00+00:00,255.1947,1.0,12.89,47.84626,-54.09684
2019-01-25 18:30:00+00:00,241.5031,1.0,12.89,47.84626,-54.09684
2019-01-25 18:40:00+00:00,227.3314,1.0,12.89,47.84626,-54.09684
2019-01-25 18:50:00+00:00,221.4131,1.0,12.89,47.84626,-54.09684
2019-01-25 19:00:00+00:00,212.4998,1.0,12.81,47.84626,-54.09684
2019-01-25 19:10:00+00:00,201.0481,1.0,12.73,47.84626,-54.09684
2019-01-25 19:20:00+00:00,194.9081,1.0,12.81,47.84626,-54.09684
2019-01-25 19:30:00+00:00,188.1198,1.0,12.81,47.84626,-54.09684
2019-01-25 19:40:00+00:00,177.2498,1.0,12.81,47.84626,-54.09684
2019-01-25 19:50:00+00:00,172.8498,1.01,12.89,47.84626,-54.09684
2019-01-25 20:00:00+00:00,171.1948,1.0,12.81,47.84626,-54.09684
2019-01-25 20:10:00+00:00,163.5215,1.01,12.73,47.84626,-54.09684
2019-01-25 20:20:00+00:00,158.8432,1.01,12.81,47.84626,-54.09684
2019-01-25 20:30:00+00:00,159.7948,1.0,12.81,47.84626,-54.09684
2019-01-25 20:40:00+00:00,159.0665,1.0,12.81,47.84626,-54.09684
2019-01-25 20:50:00+00:00,156.2848,1.01,12.81,47.84626,-54.09684
2019-01-25 21:00:00+00:00,156.0332,1.04,12.73,47.84626,-54.09684
2019-01-25 21:10:00+00:00,160.0699,1.05,12.73,47.84626,-54.09684
2019-01-25 21:20:00+00:00,167.6031,1.06,12.81,47.84626,-54.09684
2019-01-25 21:30:00+00:00,173.3148,1.06,12.81,47.84626,-54.09684
2019-01-25 21:40:00+00:00,179.4465,1.05,12.81,47.84626,-54.09684
2019-01-25 21:50:00+00:00,185.6331,1.05,12.81,47.84626,-54.09684
2019-01-25 22:00:00+00:00,188.2048,1.06,12.73,47.84626,-54.09684
2019-01-25 22:10:00+00:00,194.1748,1.07,12.73,47.84626,-54.09684
2019-01-25 22:20:00+00:00,200.8931,1.07,12.81,47.84626,-54.09684
2019-01-25 22:30:00+00:00,202.6081,1.06,12.81,47.84626,-54.09684
2019-01-25 22:40:00+00:00,207.5148,1.06,12.81,47.84626,-54.09684
2019-01-25 22:50:00+00:00,214.9831,1.06,12.81,47.84626,-54.09684
2019-01-25 23:00:00+00:00,215.3998,1.06,12.73,47.84626,-54.09684
2019-01-25 23:10:00+00:00,216.6581,1.04,12.73,47.84626,-54.09684
2019-01-25 23:20:00+00:00,225.1847,1.04,12.81,47.84626,-54.09684
2019-01-25 23:30:00+00:00,230.6981,1.02,12.81,47.84626,-54.09684
2019-01-25 23:40:00+00:00,232.4547,1.0,12.81,47.84626,-54.09684
2019-01-25 23:50:00+00:00,240.0531,1.0,12.81,47.84626,-54.09684
